EW7869 Weather Reports


time (UTC)temp
C
wind
direction
speed
KPH
gust
KPH
rain 1hr
cm
rain 24hr
cm
rain mn
cm
humidity
%
barometer
mb
20200922212021 20 122 0.0 1.6 0.00 0.03 0.03 63 1019.8
20200922211520 20 122 0.0 3.2 0.00 0.03 0.03 63 1019.7
20200922211020 20 108 1.6 4.8 0.00 0.03 0.03 63 1019.6
20200922210515 20 105 0.0 4.8 0.00 0.03 0.03 61 1019.7
20200922210021 20 130 0.0 3.2 0.00 0.03 0.03 61 1019.8
20200922205512 20 203 0.0 3.2 0.00 0.03 0.03 60 1020.0
20200922205011 20 203 0.0 1.6 0.00 0.03 0.03 60 1020.2
20200922204517 20 204 0.0 0.0 0.00 0.03 0.03 62 1020.3
20200922204012 20 184 0.0 1.6 0.00 0.03 0.03 62 1020.3
20200922203512 20 207 0.0 3.2 0.00 0.03 0.03 60 1020.4
20200922203022 20 207 0.0 4.8 0.00 0.03 0.03 62 1020.4
20200922202500 20 208 0.0 4.8 0.00 0.03 0.03 60 1020.5
20200922202000 20 208 1.6 4.8 0.00 0.03 0.03 62 1020.5
20200922201448 20 210 1.6 4.8 0.00 0.03 0.03 60 1020.6
20200922200947 20 203 1.6 3.2 0.00 0.03 0.03 62 1020.6
20200922200447 20 139 1.6 3.2 0.00 0.03 0.03 63 1020.8
20200922195947 20 107 0.0 3.2 0.00 0.03 0.03 64 1020.8
20200922195449 20 199 0.0 1.6 0.00 0.03 0.03 64 1020.9
20200922194945 20 200 0.0 0.0 0.00 0.03 0.03 63 1021.0
20200922194444 20 198 0.0 3.2 0.00 0.03 0.03 63 1021.1
20200922193946 20 199 0.0 3.2 0.00 0.03 0.03 62 1021.1
20200922193440 20 192 0.0 3.2 0.00 0.03 0.03 65 1021.0
20200922192940 20 113 1.6 3.2 0.00 0.03 0.03 65 1021.0
20200922192441 20 112 0.0 3.2 0.00 0.03 0.03 63 1021.0
20200922191942 20 200 0.0 0.0 0.00 0.03 0.03 62 1021.1
20200922191442 20 200 0.0 0.0 0.00 0.03 0.03 64 1021.3
20200922190945 20 200 0.0 0.0 0.00 0.03 0.03 65 1021.4
20200922190438 20 199 0.0 3.2 0.00 0.03 0.03 63 1021.5
20200922185938 20 201 0.0 3.2 0.00 0.03 0.03 61 1021.6
20200922185439 20 201 0.0 3.2 0.00 0.03 0.03 61 1021.7
20200922184940 21 201 0.0 3.2 0.00 0.03 0.03 61 1021.7
20200922184439 21 156 1.6 4.8 0.00 0.03 0.03 62 1021.8
20200922183941 20 163 1.6 4.8 0.00 0.03 0.03 60 1021.9
20200922183440 21 96 0.0 3.2 0.00 0.03 0.03 60 1022.0
20200922182934 21 94 1.6 9.7 0.00 0.03 0.03 60 1022.1
20200922182439 21 89 1.6 9.7 0.00 0.03 0.03 59 1022.2
20200922181936 21 203 0.0 3.2 0.00 0.03 0.03 60 1022.3
20200922181438 21 202 0.0 3.2 0.00 0.03 0.03 57 1022.3
20200922180928 21 196 0.0 3.2 0.00 0.03 0.03 61 1022.4
20200922180430 21 196 0.0 4.8 0.00 0.03 0.03 62 1022.5
20200922175927 21 190 0.0 4.8 0.00 0.03 0.03 60 1022.5
20200922175426 20 143 1.6 3.2 0.00 0.03 0.03 61 1022.6
20200922174924 20 204 1.6 4.8 0.00 0.03 0.03 61 1022.7
20200922174419 20 205 0.0 4.8 0.00 0.03 0.03 60 1022.8
20200922173914 20 202 0.0 3.2 0.00 0.03 0.03 64 1022.9
20200922173410 20 148 1.6 4.8 0.00 0.03 0.03 64 1023.0
20200922172911 20 205 0.0 4.8 0.00 0.03 0.03 62 1023.1
20200922172410 20 192 0.0 0.0 0.00 0.03 0.03 64 1023.2
20200922171909 20 205 1.6 6.4 0.00 0.03 0.03 64 1023.2
20200922171404 21 208 1.6 6.4 0.00 0.03 0.03 61 1023.4
20200922170904 20 204 0.0 3.2 0.00 0.03 0.03 63 1023.4
20200922170407 20 200 0.0 1.6 0.00 0.03 0.03 64 1023.4
20200922165902 20 187 0.0 0.0 0.00 0.03 0.03 64 1023.4
20200922165359 20 195 0.0 1.6 0.00 0.03 0.03 66 1023.5
20200922164859 19 199 0.0 3.2 0.00 0.03 0.03 65 1023.5
20200922164354 19 152 0.0 3.2 0.00 0.03 0.03 65 1023.5
20200922163857 19 150 0.0 4.8 0.00 0.03 0.03 68 1023.6
20200922163356 19 187 1.6 4.8 0.00 0.03 0.03 68 1023.6
20200922162859 18 198 1.6 4.8 0.00 0.03 0.03 67 1023.7
20200922162354 18 190 0.0 3.2 0.00 0.03 0.03 66 1023.7
20200922161850 18 195 0.0 3.2 0.00 0.03 0.03 67 1023.9
20200922161351 18 200 0.0 3.2 0.00 0.03 0.03 67 1024.0
20200922160848 18 199 0.0 4.8 0.00 0.03 0.03 69 1024.0
20200922160349 18 199 1.6 8.0 0.00 0.03 0.03 67 1024.0
20200922155849 18 198 0.0 8.0 0.00 0.03 0.03 68 1024.1
20200922155345 18 199 0.0 6.4 0.00 0.03 0.03 68 1024.1
20200922154852 18 198 1.6 6.4 0.00 0.03 0.03 67 1024.1
20200922154346 18 179 0.0 3.2 0.00 0.03 0.03 70 1024.2
20200922153842 17 189 0.0 3.2 0.00 0.03 0.03 70 1024.4
20200922153343 17 187 0.0 3.2 0.00 0.03 0.03 71 1024.3
20200922152841 17 174 0.0 3.2 0.00 0.03 0.03 79 1024.2
20200922152340 16 137 0.0 1.6 0.00 0.03 0.03 78 1024.3
20200922151839 16 136 0.0 0.0 0.00 0.03 0.03 81 1024.4
20200922151342 16 134 0.0 1.6 0.00 0.03 0.03 82 1024.4
20200922150842 16 134 0.0 1.6 0.00 0.03 0.03 84 1024.5
20200922150331 15 103 0.0 1.6 0.00 0.03 0.03 87 1024.5
20200922145829 15 123 0.0 3.2 0.00 0.03 0.03 87 1024.6
20200922145327 15 124 0.0 3.2 0.00 0.03 0.03 86 1024.6
20200922144824 15 157 0.0 0.0 0.00 0.03 0.03 90 1024.6
20200922144322 14 157 0.0 0.0 0.00 0.03 0.03 92 1024.6
20200922143824 14 157 0.0 0.0 0.00 0.03 0.03 92 1024.6
20200922143323 14 120 0.0 0.0 0.00 0.03 0.03 92 1024.5
20200922142822 13 130 0.0 0.0 0.00 0.03 0.03 94 1024.5
20200922142322 13 145 0.0 1.6 0.00 0.03 0.03 96 1024.5
20200922141822 13 155 0.0 1.6 0.00 0.03 0.03 96 1024.5
20200922141313 13 165 0.0 0.0 0.00 0.03 0.03 97 1024.4
20200922140812 13 165 0.0 0.0 0.00 0.03 0.03 97 1024.5
20200922140313 13 165 0.0 0.0 0.00 0.03 0.03 97 1024.5
20200922135811 13 165 0.0 0.0 0.00 0.03 0.03 97 1024.4
20200922135306 12 165 0.0 0.0 0.00 0.03 0.03 97 1024.4
20200922134804 12 165 0.0 0.0 0.00 0.03 0.03 97 1024.4
20200922134305 12 165 0.0 0.0 0.00 0.03 0.03 97 1024.3
20200922133806 12 165 0.0 0.0 0.00 0.03 0.03 97 1024.3
20200922133308 11 165 0.0 0.0 0.00 0.03 0.03 97 1024.2
20200922132806 11 165 0.0 0.0 0.00 0.03 0.03 97 1024.2
20200922132258 11 165 0.0 0.0 0.00 0.03 0.03 97 1024.1
20200922131755 11 165 0.0 0.0 0.00 0.03 0.03 97 1024.1
20200922131253 11 165 0.0 0.0 0.00 0.03 0.03 97 1024.1
20200922130751 11 165 0.0 0.0 0.00 0.03 0.03 98 1024.0
20200922130254 11 165 0.0 0.0 0.00 0.03 0.03 98 1024.0
20200922125750 11 165 0.0 0.0 0.00 0.03 0.03 97 1024.0
20200922125248 11 165 0.0 0.0 0.00 0.03 0.03 97 1023.9
20200922124748 10 165 0.0 0.0 0.00 0.03 0.03 97 1023.8
20200922124247 10 165 0.0 0.0 0.00 0.03 0.03 97 1023.9
20200922123746 10 165 0.0 0.0 0.00 0.03 0.03 98 1023.8
20200922123245 10 165 0.0 0.0 0.00 0.03 0.03 98 1023.8
20200922122741 10 165 0.0 0.0 0.00 0.03 0.03 98 1023.8
20200922122258 10 165 0.0 0.0 0.00 0.03 0.03 98 1023.7
20200922121735 10 165 0.0 0.0 0.00 0.03 0.03 98 1023.8
20200922121233 10 165 0.0 0.0 0.00 0.03 0.03 98 1023.8
20200922120733 10 165 0.0 0.0 0.00 0.03 0.03 98 1023.7
20200922120226 10 165 0.0 0.0 0.00 0.03 0.03 98 1023.6
20200922115727 10 165 0.0 0.0 0.00 0.03 0.03 98 1023.6
20200922115228 10 165 0.0 0.0 0.03 0.03 0.03 97 1023.5
20200922114725 10 165 0.0 0.0 0.03 0.03 0.03 98 1023.4
20200922114225 10 165 0.0 0.0 0.03 0.03 0.03 98 1023.4
20200922113725 10 165 0.0 0.0 0.03 0.03 0.03 98 1023.5
20200922113225 10 165 0.0 0.0 0.03 0.03 0.03 98 1023.5
20200922112720 10 165 0.0 0.0 0.03 0.03 0.03 97 1023.4
20200922112222 10 165 0.0 0.0 0.03 0.03 0.03 97 1023.4
20200922111721 10 165 0.0 0.0 0.03 0.03 0.03 97 1023.4
20200922111219 10 165 0.0 0.0 0.03 0.03 0.03 97 1023.3
20200922110718 10 165 0.0 0.0 0.03 0.03 0.03 97 1023.3
20200922110218 10 165 0.0 0.0 0.03 0.03 0.03 97 1023.2
20200922105716 10 165 0.0 0.0 0.03 0.03 0.03 97 1023.2
20200922105215 10 165 0.0 0.0 0.00 0.00 0.00 97 1023.2
20200922104714 10 165 0.0 0.0 0.00 0.00 0.00 97 1023.2
20200922104216 10 165 0.0 0.0 0.00 0.00 0.00 97 1023.2
20200922103711 10 165 0.0 0.0 0.00 0.00 0.00 97 1023.1
20200922103214 10 165 0.0 0.0 0.00 0.00 0.00 97 1023.1
20200922102712 10 165 0.0 0.0 0.00 0.00 0.00 97 1023.1
20200922102207 10 165 0.0 0.0 0.00 0.00 0.00 97 1023.1
20200922101703 10 165 0.0 0.0 0.00 0.00 0.00 97 1023.1
20200922101201 10 165 0.0 0.0 0.00 0.00 0.00 97 1023.0
20200922100707 10 165 0.0 0.0 0.00 0.00 0.00 97 1023.0
20200922100155 10 165 0.0 0.0 0.00 0.00 0.00 97 1023.0
20200922095652 10 165 0.0 0.0 0.00 0.00 0.00 97 1023.0
20200922095152 10 165 0.0 0.0 0.00 0.00 0.00 97 1023.0
20200922094648 10 165 0.0 0.0 0.00 0.00 0.00 97 1022.9
20200922094154 10 165 0.0 0.0 0.00 0.00 0.00 97 1022.9
20200922093647 10 165 0.0 0.0 0.00 0.00 0.00 97 1022.9
20200922093144 10 165 0.0 0.0 0.00 0.00 0.00 97 1022.9
20200922092645 10 165 0.0 0.0 0.00 0.00 0.00 97 1022.9
20200922092145 11 165 0.0 0.0 0.00 0.00 0.00 97 1022.9
20200922091642 11 165 0.0 0.0 0.00 0.00 0.00 97 1022.8
20200922091140 10 165 0.0 0.0 0.00 0.00 0.00 97 1022.8
20200922090641 10 165 0.0 0.0 0.00 0.00 0.00 97 1022.8
20200922090143 10 165 0.0 0.0 0.00 0.00 0.00 97 1022.9
20200922085641 10 165 0.0 0.0 0.00 0.00 0.00 97 1022.9
20200922085146 10 165 0.0 0.0 0.00 0.00 0.00 97 1022.9
20200922084643 10 165 0.0 0.0 0.00 0.00 0.00 97 1022.9
20200922084141 10 165 0.0 0.0 0.00 0.00 0.00 97 1022.9
20200922083639 10 165 0.0 0.0 0.00 0.00 0.00 97 1022.8
20200922083142 11 165 0.0 0.0 0.00 0.00 0.00 97 1022.8
20200922082641 10 165 0.0 0.0 0.00 0.00 0.00 97 1022.7
20200922082140 11 165 0.0 0.0 0.00 0.00 0.00 97 1022.7
20200922081638 11 165 0.0 0.0 0.00 0.00 0.00 97 1022.6
20200922081135 11 165 0.0 0.0 0.00 0.00 0.00 97 1022.6
20200922080634 11 165 0.0 0.0 0.00 0.00 0.00 97 1022.7
20200922080128 11 165 0.0 0.0 0.00 0.00 0.00 97 1022.7
20200922075633 11 165 0.0 0.0 0.00 0.00 0.00 97 1022.7
20200922075125 11 165 0.0 0.0 0.00 0.00 0.00 97 1022.7
20200922074624 11 165 0.0 0.0 0.00 0.00 0.00 97 1022.7
20200922074125 11 165 0.0 0.0 0.00 0.00 0.00 97 1022.7
20200922073621 11 165 0.0 0.0 0.00 0.00 0.00 97 1022.8
20200922073124 11 165 0.0 0.0 0.00 0.00 0.00 97 1022.8
20200922072620 11 165 0.0 0.0 0.00 0.00 0.00 97 1022.8
20200922072121 11 165 0.0 0.0 0.00 0.00 0.00 97 1022.8
20200922071619 11 165 0.0 0.0 0.00 0.00 0.00 97 1022.8
20200922071121 11 165 0.0 0.0 0.00 0.00 0.00 97 1022.8
20200922070615 11 165 0.0 0.0 0.00 0.00 0.00 97 1022.7
20200922070113 11 165 0.0 0.0 0.00 0.00 0.00 97 1022.6
20200922065610 11 165 0.0 0.0 0.00 0.00 0.00 97 1022.7
20200922065107 10 165 0.0 0.0 0.00 0.00 0.00 97 1022.7
20200922064609 10 165 0.0 0.0 0.00 0.00 0.00 97 1022.8
20200922064105 10 165 0.0 0.0 0.00 0.00 0.00 96 1022.8
20200922063601 10 165 0.0 0.0 0.00 0.00 0.00 96 1022.8
20200922063057 10 165 0.0 0.0 0.00 0.00 0.00 96 1022.8
20200922062554 10 165 0.0 0.0 0.00 0.00 0.00 96 1022.8
20200922062056 10 165 0.0 0.0 0.00 0.00 0.00 96 1022.8
20200922061548 10 165 0.0 0.0 0.00 0.00 0.00 96 1022.9
20200922061049 10 165 0.0 0.0 0.00 0.00 0.00 96 1023.0
20200922060545 11 165 0.0 0.0 0.00 0.00 0.00 96 1023.0
20200922060046 11 165 0.0 0.0 0.00 0.00 0.00 96 1023.0
20200922055547 11 165 0.0 0.0 0.00 0.00 0.00 96 1023.0
20200922055048 11 162 0.0 0.0 0.00 0.00 0.00 96 1023.0
20200922054545 11 162 0.0 0.0 0.00 0.00 0.00 96 1022.9
20200922054041 11 162 0.0 0.0 0.00 0.00 0.00 96 1022.8
20200922053538 11 162 0.0 0.0 0.00 0.00 0.00 96 1022.9
20200922053038 11 162 0.0 0.0 0.00 0.00 0.00 95 1023.0
20200922052537 11 162 0.0 0.0 0.00 0.00 0.00 96 1023.0
20200922052028 11 162 0.0 0.0 0.00 0.00 0.00 96 1023.0
20200922051526 11 162 0.0 0.0 0.00 0.00 0.00 96 1023.0
20200922051027 11 162 0.0 0.0 0.00 0.00 0.00 96 1023.0
20200922050525 11 162 0.0 0.0 0.00 0.00 0.00 95 1023.0
20200922050023 11 162 0.0 0.0 0.00 0.00 0.00 96 1023.1
20200922045521 11 162 0.0 0.0 0.00 0.00 0.00 96 1023.1
20200922045022 11 162 0.0 0.0 0.00 0.00 0.00 95 1023.1
20200922044522 12 162 0.0 0.0 0.00 0.00 0.00 96 1023.1
20200922044024 12 162 0.0 0.0 0.00 0.00 0.00 96 1023.2
20200922043522 12 162 0.0 0.0 0.00 0.00 0.00 95 1023.3
20200922043024 12 162 0.0 0.0 0.00 0.00 0.00 95 1023.2
20200922042517 12 162 0.0 0.0 0.00 0.00 0.00 95 1023.2
20200922042020 12 162 0.0 0.0 0.00 0.00 0.00 95 1023.2
20200922041518 12 162 0.0 0.0 0.00 0.00 0.00 95 1023.4
20200922041017 12 162 0.0 0.0 0.00 0.00 0.00 95 1023.4
20200922040519 12 162 0.0 0.0 0.00 0.00 0.00 95 1023.4
20200922040024 12 162 0.0 0.0 0.00 0.00 0.00 95 1023.5
20200922035514 12 162 0.0 0.0 0.00 0.00 0.00 95 1023.5
20200922035016 12 162 0.0 0.0 0.00 0.00 0.00 95 1023.5
20200922034530 12 60 0.0 0.0 0.00 0.00 0.00 94 1023.4
20200922034014 12 60 0.0 0.0 0.00 0.00 0.00 94 1023.3
20200922033513 12 60 0.0 0.0 0.00 0.00 0.00 94 1023.2
20200922033016 12 60 0.0 0.0 0.00 0.00 0.00 94 1023.3
20200922032510 12 60 0.0 0.0 0.00 0.00 0.00 93 1023.2
20200922032010 12 60 0.0 0.0 0.00 0.00 0.00 93 1023.2
20200922031511 12 60 0.0 0.0 0.00 0.00 0.00 92 1023.3
20200922031013 12 60 0.0 0.0 0.00 0.00 0.00 92 1023.4
20200922030510 12 60 0.0 0.0 0.00 0.00 0.00 92 1023.4
20200922030018 12 60 0.0 0.0 0.00 0.00 0.00 92 1023.4
20200922025510 12 60 0.0 0.0 0.00 0.00 0.00 92 1023.4
20200922025010 12 60 0.0 0.0 0.00 0.00 0.00 91 1023.3
20200922024512 12 60 0.0 0.0 0.00 0.00 0.00 91 1023.2
20200922024009 13 60 0.0 0.0 0.00 0.00 0.00 91 1023.3
20200922023509 13 60 0.0 0.0 0.00 0.00 0.00 91 1023.2
20200922023018 13 60 0.0 0.0 0.00 0.00 0.00 91 1023.2
20200922022459 13 60 0.0 0.0 0.00 0.00 0.00 90 1023.1
20200922021957 13 60 0.0 0.0 0.00 0.00 0.00 90 1023.2
20200922021459 13 60 0.0 0.0 0.00 0.00 0.00 90 1023.1
20200922020958 13 60 0.0 0.0 0.00 0.00 0.00 89 1023.1
20200922020452 13 60 0.0 0.0 0.00 0.00 0.00 89 1023.1
20200922015952 13 60 0.0 0.0 0.00 0.00 0.00 89 1023.1
20200922015448 13 60 0.0 0.0 0.00 0.00 0.00 88 1023.2
20200922014946 13 60 0.0 0.0 0.00 0.00 0.00 87 1023.2
20200922014446 14 60 0.0 0.0 0.00 0.00 0.00 86 1023.2
20200922013940 14 60 0.0 0.0 0.00 0.00 0.00 86 1023.2
20200922013441 14 60 0.0 0.0 0.00 0.00 0.00 86 1023.1
20200922012937 14 60 0.0 0.0 0.00 0.00 0.00 85 1023.1
20200922012438 14 60 0.0 0.0 0.00 0.00 0.00 84 1023.1
20200922011934 15 60 0.0 0.0 0.00 0.00 0.00 83 1023.0
20200922011434 15 60 0.0 0.0 0.00 0.00 0.00 82 1023.0
20200922010930 15 60 0.0 0.0 0.00 0.00 0.00 81 1022.9
20200922010429 15 60 0.0 0.0 0.00 0.00 0.00 80 1022.9
20200922005928 15 60 0.0 0.0 0.00 0.00 0.00 79 1022.9
20200922005428 15 60 0.0 0.0 0.00 0.00 0.00 78 1022.8
20200922004928 16 60 0.0 0.0 0.00 0.00 0.00 77 1022.8
20200922004426 16 60 0.0 0.0 0.00 0.00 0.00 76 1022.8
20200922003926 16 60 0.0 0.0 0.00 0.00 0.00 75 1022.7
20200922003426 16 60 0.0 0.0 0.00 0.00 0.00 74 1022.7
20200922002925 16 60 0.0 0.0 0.00 0.00 0.00 74 1022.6
20200922002424 17 60 0.0 0.0 0.00 0.00 0.00 73 1022.7
20200922001923 17 60 0.0 0.0 0.00 0.00 0.00 72 1022.7
20200922001417 17 60 0.0 0.0 0.00 0.00 0.00 72 1022.7
20200922000915 17 60 0.0 0.0 0.00 0.00 0.00 72 1022.7
20200922000412 18 60 0.0 0.0 0.00 0.00 0.00 67 1022.7
20200921235910 18 60 0.0 0.0 0.00 0.00 0.00 66 1022.8
20200921235411 18 60 0.0 0.0 0.00 0.00 0.00 65 1022.8
20200921234910 19 60 0.0 0.0 0.00 0.00 0.00 62 1022.7
20200921234407 19 60 0.0 0.0 0.00 0.00 0.00 61 1022.7
20200921233908 20 60 0.0 0.0 0.00 0.00 0.00 59 1022.6
20200921233408 20 60 0.0 0.0 0.00 0.00 0.00 57 1022.6
20200921232904 21 60 0.0 0.0 0.00 0.00 0.00 55 1022.5
20200921232405 21 60 0.0 0.0 0.00 0.00 0.00 54 1022.5
20200921231858 21 60 0.0 0.0 0.00 0.00 0.00 53 1022.4
20200921231356 21 60 0.0 0.0 0.00 0.00 0.00 51 1022.4
20200921230856 21 60 0.0 1.6 0.00 0.00 0.00 52 1022.4
20200921230352 21 59 0.0 1.6 0.00 0.00 0.00 51 1022.4
20200921225853 22 102 0.0 3.2 0.00 0.00 0.00 51 1022.3
20200921225345 22 105 0.0 3.2 0.00 0.00 0.00 51 1022.3
20200921224843 22 165 0.0 9.7 0.00 0.00 0.00 50 1022.2
20200921224352 22 115 0.0 9.7 0.00 0.00 0.00 49 1022.2
20200921223841 22 55 0.0 3.2 0.00 0.00 0.00 49 1022.3
20200921223343 22 124 0.0 1.6 0.00 0.00 0.00 50 1022.3
20200921222834 22 155 0.0 1.6 0.00 0.00 0.00 51 1022.3
20200921222333 22 155 0.0 11.3 0.00 0.00 0.00 46 1022.3
20200921221830 22 136 0.0 11.3 0.00 0.00 0.00 46 1022.4
20200921221328 23 231 0.0 6.4 0.00 0.00 0.00 44 1022.4
20200921220828 23 97 0.0 6.4 0.00 0.00 0.00 43 1022.4
20200921220327 23 184 0.0 3.2 0.00 0.00 0.00 43 1022.4
20200921215825 23 184 1.6 9.7 0.00 0.00 0.00 43 1022.4
20200921215324 23 210 3.2 11.3 0.00 0.00 0.00 44 1022.3
20200921214826 23 201 3.2 11.3 0.00 0.00 0.00 41 1022.3
20200921214322 23 80 4.8 14.5 0.00 0.00 0.00 41 1022.3
20200921213824 23 38 4.8 14.5 0.00 0.00 0.00 42 1022.3
20200921213317 23 56 3.2 12.9 0.00 0.00 0.00 44 1022.4
20200921212813 23 113 4.8 12.9 0.00 0.00 0.00 43 1022.5
20200921212312 23 83 3.2 16.1 0.00 0.00 0.00 42 1022.5